EDT,Max TemperatureF,Mean TemperatureF,Min TemperatureF,Max Dew PointF,MeanDew PointF,Min DewpointF,Max Humidity, Mean Humidity, Min Humidity, Max Sea Level PressureIn, Mean Sea Level PressureIn, Min Sea Level PressureIn, Max VisibilityMiles, Mean VisibilityMiles, Min VisibilityMiles, Max Wind SpeedMPH, Mean Wind SpeedMPH, Max Gust SpeedMPH,PrecipitationIn, CloudCover, Events, WindDirDegrees
2011-10-1,75,69,62,63,53,46,68,56,47,30.01,29.91,29.82,10,10,10,16,11,22,0.00,0,,340
2011-10-2,75,65,55,59,52,45,87,64,43,30.08,30.02,29.99,10,10,10,10,7,,0.00,0,,343
2011-10-3,80,66,55,57,52,47,84,62,33,30.17,30.11,30.07,10,10,10,10,5,,0.00,0,,331
2011-10-4,80,68,57,61,56,51,81,60,42,30.20,30.16,30.13,10,10,10,13,7,20,0.00,0,,10
2011-10-5,81,76,71,64,61,58,69,60,52,30.19,30.15,30.12,10,10,10,18,12,22,0.00,1,,44
2011-10-6,82,76,71,70,67,63,90,74,54,30.17,30.14,30.10,10,10,5,21,14,26,0.07,5,Rain,54
2011-10-7,82,75,69,70,68,63,90,77,61,30.21,30.17,30.12,10,8,1,33,17,45,0.52,4,Rain-Thunderstorm,57
2011-10-8,79,75,71,70,66,62,94,71,58,30.21,30.15,30.10,10,7,1,30,19,39,0.16,5,Rain,81
2011-10-9,82,77,73,72,69,66,94,81,67,30.08,29.97,29.86,10,8,2,38,26,51,0.46,7,Rain,75
2011-10-10,84,78,73,75,72,70,100,85,66,29.84,29.79,29.71,10,9,2,39,23,50,0.15,6,Rain-Thunderstorm,134
2011-10-11,82,76,71,76,73,71,100,87,69,29.85,29.81,29.78,10,9,0,15,3,,0.01,5,Fog-Rain,172
2011-10-12,86,78,70,72,70,68,93,78,55,29.88,29.82,29.78,10,10,10,12,5,,0.01,3,,224
2011-10-13,84,76,69,73,69,67,96,82,60,29.83,29.78,29.70,10,10,10,14,6,,0.03,3,,244
2011-10-14,80,72,63,68,60,54,93,71,40,30.01,29.90,29.80,10,10,10,12,6,20,0.00,0,,276
2011-10-15,79,68,57,64,59,55,90,72,50,30.12,30.06,30.01,10,10,10,14,3,,0.00,0,,5
2011-10-16,81,72,64,65,63,59,90,75,56,30.15,30.10,30.05,10,10,10,15,4,,0.00,0,,11
2011-10-17,82,72,63,72,67,60,93,82,67,30.05,29.99,29.90,10,10,10,10,3,,0.00,0,,66
2011-10-18,84,78,71,73,71,70,94,86,66,29.88,29.77,29.57,10,9,7,18,5,24,0.01,6,Rain,172
2011-10-19,82,68,57,75,68,51,94,82,55,29.85,29.56,29.47,10,9,0,18,12,33,0.05,6,Rain,241
2011-10-20,66,57,48,50,43,39,83,65,37,30.10,30.02,29.86,10,10,10,12,6,23,0.00,0,,262
2011-10-21,68,56,46,50,45,41,90,67,42,30.17,30.12,30.07,10,10,10,10,5,,0.00,0,,310
2011-10-22,70,60,50,50,47,41,80,62,45,30.11,30.07,30.03,10,10,10,13,7,,0.00,0,,346
2011-10-23,73,62,51,63,56,47,92,77,57,30.08,30.05,30.02,10,10,10,14,6,,0.00,1,,347
2011-10-24,73,66,57,59,56,52,93,73,49,30.17,30.09,30.02,10,10,10,17,8,20,0.00,0,,344
2011-10-25,78,66,55,63,59,53,90,74,54,30.22,30.16,30.14,10,10,10,15,7,,0.00,1,,347
2011-10-26,78,71,64,67,64,62,93,80,62,30.14,30.07,30.01,10,10,10,10,3,23,0.00,6,Rain,346
2011-10-27,80,71,62,68,65,60,93,81,64,30.01,29.95,29.88,10,10,10,10,2,,0.00,4,,126
2011-10-28,78,72,66,67,65,64,93,81,64,30.00,29.94,29.91,10,10,10,7,4,,0.00,3,Rain,217
2011-10-29,71,63,55,68,61,46,97,82,62,30.09,29.92,29.84,10,9,3,15,7,21,0.23,6,Rain,336
2011-10-30,73,67,61,58,54,48,70,62,53,30.19,30.13,30.08,10,10,10,22,17,29,0.00,5,,56
2011-10-31,73,70,66,66,63,58,90,80,63,30.14,30.08,30.02,10,10,7,16,12,22,0.06,5,Rain,23